Location: Demmingen
(48.6757°N, 10.4375°E)
Time: 08:39:19
(UTC+00:00)

Cosmos 1300 Rocket - Pass Details

Date: 23 May 2024
Orbit: 597 x 624 km, 82.5° (Epoch: 15 June)

Event Time Altitude Azimuth Distance (km) Brightness Sun altitude
Rises 01:10:42 0° 350° (N) 2,876 7.9 -16.0°
Reaches altitude 10° 01:12:57 10° 352° (N) 1,963 6.9 -15.9°
Maximum altitude 01:17:17 83° 79° (E) 613 3.5 -15.5°
Enters shadow 01:20:28 18° 168° (SSE) 1,494 5.1 -15.2°
